Location: Guayaquil
(2.1667°S, 79.9000°W)
Time: 13:43:40
(UTC-05:00)

DNEPR OBJECT AB - Pass Details

Date: 01 April 2018
Orbit: 587 x 704 km, 97.6° (Epoch: 22 July)

Event Time Altitude Azimuth Distance (km) Brightness Sun altitude
Rises 05:51:49 0° 48° (NE) 2,909 ? -8.1°
Reaches altitude 10° 05:55:11 10° 77° (ENE) 2,035 ? -7.2°
Maximum altitude 05:57:09 13° 103° (ESE) 1,872 ? -6.7°
Drops below altitude 10° 05:59:08 10° 130° (SE) 2,072 ? -6.2°
Sets 06:02:37 0° 157° (SSE) 3,017 ? -5.4°
